| time (UTC) | temp C | wind direction | speed KPH | gust KPH | rain 1hr cm | rain 24hr cm | rain mn cm | humidity % | barometer mb |
| 20260906014522 | 20 | 49 | 0.0 | 0.0 | 0.00 | 0.28 | 0.28 | 58 | 1024.6 |
| 20260906014016 | 20 | 49 | 0.0 | 3.2 | 0.00 | 0.28 | 0.28 | 60 | 1024.6 |
| 20260906013514 | 21 | 49 | 0.0 | 3.2 | 0.00 | 0.28 | 0.28 | 58 | 1024.5 |
| 20260906013048 | 21 | 49 | 0.0 | 0.0 | 0.00 | 0.28 | 0.28 | 57 | 1024.5 |
| 20260906012541 | 21 | 49 | 0.0 | 0.0 | 0.00 | 0.28 | 0.28 | 58 | 1024.5 |
| 20260906012034 | 21 | 49 | 0.0 | 0.0 | 0.00 | 0.28 | 0.28 | 57 | 1024.5 |
| 20260906011527 | 22 | 49 | 0.0 | 0.0 | 0.00 | 0.28 | 0.28 | 57 | 1024.5 |
| 20260906011020 | 22 | 49 | 0.0 | 0.0 | 0.00 | 0.28 | 0.28 | 58 | 1024.6 |
| 20260906010514 | 22 | 49 | 0.0 | 0.0 | 0.00 | 0.28 | 0.28 | 61 | 1024.5 |
| 20260906010047 | 22 | 49 | 0.0 | 0.0 | 0.00 | 0.28 | 0.28 | 61 | 1024.4 |
| 20260906005517 | 22 | 49 | 0.0 | 0.0 | 0.00 | 0.28 | 0.28 | 59 | 1024.5 |
| 20260906005029 | 23 | 49 | 0.0 | 0.0 | 0.00 | 0.28 | 0.28 | 60 | 1024.5 |
| 20260906004526 | 23 | 49 | 0.0 | 0.0 | 0.00 | 0.28 | 0.28 | 58 | 1024.4 |
| 20260906004020 | 23 | 49 | 0.0 | 0.0 | 0.00 | 0.28 | 0.28 | 55 | 1024.4 |
| 20260906003514 | 23 | 49 | 0.0 | 0.0 | 0.00 | 0.28 | 0.28 | 52 | 1024.4 |
| 20260906003027 | 23 | 49 | 0.0 | 0.0 | 0.00 | 0.28 | 0.28 | 52 | 1024.4 |
| 20260906002521 | 23 | 49 | 0.0 | 0.0 | 0.00 | 0.28 | 0.28 | 50 | 1024.4 |
| 20260906002015 | 24 | 49 | 0.0 | 0.0 | 0.00 | 0.28 | 0.28 | 49 | 1024.4 |
| 20260906001549 | 24 | 49 | 0.0 | 0.0 | 0.00 | 0.28 | 0.28 | 48 | 1024.4 |
| 20260906001022 | 24 | 49 | 0.0 | 0.0 | 0.00 | 0.28 | 0.28 | 49 | 1024.3 |
| 20260906000520 | 24 | 49 | 0.0 | 0.0 | 0.00 | 0.28 | 0.28 | 47 | 1024.3 |
| 20260906000013 | 24 | 49 | 0.0 | 0.0 | 0.00 | 0.28 | 0.28 | 48 | 1024.3 |
| 20260905235527 | 25 | 49 | 0.0 | 0.0 | 0.00 | 0.28 | 0.28 | 48 | 1024.1 |
| 20260905235020 | 25 | 49 | 0.0 | 0.0 | 0.00 | 0.28 | 0.28 | 48 | 1024.3 |
| 20260905234515 | 25 | 49 | 0.0 | 0.0 | 0.00 | 0.28 | 0.28 | 47 | 1024.3 |
| 20260905234028 | 25 | 49 | 0.0 | 0.0 | 0.00 | 0.28 | 0.28 | 48 | 1024.3 |
| 20260905233522 | 25 | 49 | 0.0 | 0.0 | 0.00 | 0.28 | 0.28 | 49 | 1024.3 |
| 20260905233015 | 25 | 49 | 0.0 | 0.0 | 0.00 | 0.28 | 0.28 | 49 | 1024.3 |
| 20260905232513 | 25 | 49 | 0.0 | 0.0 | 0.00 | 0.28 | 0.28 | 49 | 1024.3 |
| 20260905232026 | 25 | 49 | 0.0 | 0.0 | 0.00 | 0.28 | 0.28 | 45 | 1024.3 |
| 20260905231541 | 25 | 49 | 0.0 | 3.2 | 0.00 | 0.28 | 0.28 | 44 | 1024.4 |
| 20260905231113 | 25 | 49 | 0.0 | 4.8 | 0.00 | 0.28 | 0.28 | 45 | 1024.3 |
| 20260905230607 | 25 | 49 | 1.6 | 6.4 | 0.00 | 0.28 | 0.28 | 42 | 1024.4 |
| 20260905230120 | 25 | 57 | 4.8 | 8.0 | 0.00 | 0.28 | 0.28 | 41 | 1024.5 |
| 20260905225615 | 25 | 46 | 3.2 | 4.8 | 0.00 | 0.28 | 0.28 | 45 | 1024.4 |
| 20260905225129 | 25 | 157 | 0.0 | 4.8 | 0.00 | 0.28 | 0.28 | 44 | 1024.5 |
| 20260905224621 | 25 | 160 | 0.0 | 6.4 | 0.00 | 0.28 | 0.28 | 48 | 1024.5 |
| 20260905224115 | 25 | 56 | 3.2 | 6.4 | 0.00 | 0.28 | 0.28 | 46 | 1024.6 |
| 20260905223614 | 25 | 15 | 1.6 | 12.9 | 0.00 | 0.28 | 0.28 | 47 | 1024.5 |
| 20260905223107 | 25 | 46 | 6.4 | 16.1 | 0.00 | 0.28 | 0.28 | 45 | 1024.6 |
| 20260905222621 | 25 | 54 | 8.0 | 16.1 | 0.00 | 0.28 | 0.28 | 46 | 1024.6 |
| 20260905222135 | 24 | 45 | 4.8 | 12.9 | 0.00 | 0.28 | 0.28 | 49 | 1024.6 |
| 20260905221607 | 23 | 50 | 3.2 | 8.0 | 0.00 | 0.28 | 0.28 | 52 | 1024.8 |
| 20260905221120 | 23 | 53 | 1.6 | 8.0 | 0.00 | 0.28 | 0.28 | 52 | 1024.8 |
| 20260905220634 | 23 | 49 | 1.6 | 8.0 | 0.00 | 0.28 | 0.28 | 53 | 1024.8 |
| 20260905220106 | 22 | 49 | 4.8 | 8.0 | 0.00 | 0.28 | 0.28 | 54 | 1024.8 |
| 20260905215620 | 22 | 75 | 1.6 | 4.8 | 0.00 | 0.28 | 0.28 | 56 | 1024.9 |
| 20260905215114 | 22 | 32 | 1.6 | 4.8 | 0.00 | 0.28 | 0.28 | 57 | 1024.9 |
| 20260905214632 | 22 | 109 | 0.0 | 8.0 | 0.00 | 0.28 | 0.28 | 58 | 1024.9 |
| 20260905214104 | 22 | 53 | 3.2 | 9.7 | 0.00 | 0.28 | 0.28 | 57 | 1025.0 |
| 20260905213618 | 22 | 40 | 6.4 | 11.3 | 0.00 | 0.28 | 0.28 | 59 | 1025.0 |
| 20260905213112 | 21 | 53 | 4.8 | 11.3 | 0.00 | 0.28 | 0.28 | 65 | 1025.0 |
| 20260905212606 | 21 | 125 | 0.0 | 0.0 | 0.00 | 0.28 | 0.28 | 77 | 1025.0 |
| 20260905212119 | 21 | 241 | 0.0 | 0.0 | 0.00 | 0.28 | 0.28 | 83 | 1025.0 |
| 20260905211611 | 21 | 241 | 0.0 | 0.0 | 0.05 | 0.28 | 0.28 | 81 | 1025.0 |
| 20260905211105 | 20 | 241 | 0.0 | 0.0 | 0.13 | 0.28 | 0.28 | 86 | 1025.1 |
| 20260905210624 | 19 | 241 | 0.0 | 0.0 | 0.28 | 0.28 | 0.28 | 87 | 1025.3 |
| 20260905210116 | 19 | 241 | 0.0 | 0.0 | 0.28 | 0.28 | 0.28 | 86 | 1025.3 |
| 20260905205610 | 19 | 241 | 0.0 | 0.0 | 0.28 | 0.28 | 0.28 | 85 | 1025.3 |
| 20260905205104 | 19 | 241 | 0.0 | 0.0 | 0.28 | 0.28 | 0.28 | 86 | 1025.4 |
| 20260905204618 | 19 | 241 | 0.0 | 0.0 | 0.28 | 0.28 | 0.28 | 85 | 1025.5 |
| 20260905204111 | 19 | 241 | 0.0 | 1.6 | 0.28 | 0.28 | 0.28 | 84 | 1025.5 |
| 20260905194114 | 26 | 153 | 1.6 | 4.8 | 0.00 | 0.00 | 0.00 | 39 | 1025.7 |
| 20260905193606 | 26 | 119 | 3.2 | 4.8 | 0.00 | 0.00 | 0.00 | 39 | 1025.7 |
| 20260905193141 | 26 | 61 | 0.0 | 0.0 | 0.00 | 0.00 | 0.00 | 40 | 1025.8 |
| 20260905192614 | 26 | 61 | 0.0 | 1.6 | 0.00 | 0.00 | 0.00 | 39 | 1025.9 |
| 20260905192108 | 26 | 178 | 0.0 | 1.6 | 0.00 | 0.00 | 0.00 | 39 | 1026.0 |
| 20260905191603 | 27 | 178 | 0.0 | 4.8 | 0.00 | 0.00 | 0.00 | 40 | 1026.1 |
| 20260905191117 | 27 | 178 | 1.6 | 4.8 | 0.00 | 0.00 | 0.00 | 37 | 1026.2 |
| 20260905190635 | 27 | 14 | 1.6 | 4.8 | 0.00 | 0.00 | 0.00 | 37 | 1026.2 |
| 20260905190128 | 27 | 57 | 1.6 | 8.0 | 0.00 | 0.00 | 0.00 | 38 | 1026.2 |
| 20260905185621 | 27 | 270 | 3.2 | 4.8 | 0.00 | 0.00 | 0.00 | 38 | 1026.3 |
| 20260905185135 | 26 | 158 | 3.2 | 4.8 | 0.00 | 0.00 | 0.00 | 40 | 1026.4 |
| 20260905184608 | 26 | 34 | 0.0 | 0.0 | 0.00 | 0.00 | 0.00 | 39 | 1026.5 |
| 20260905184106 | 26 | 33 | 0.0 | 4.8 | 0.00 | 0.00 | 0.00 | 38 | 1026.6 |
| 20260905183620 | 26 | 61 | 1.6 | 6.4 | 0.00 | 0.00 | 0.00 | 38 | 1026.6 |
| 20260905183114 | 26 | 103 | 3.2 | 9.7 | 0.00 | 0.00 | 0.00 | 39 | 1026.7 |
| 20260905182612 | 26 | 186 | 4.8 | 9.7 | 0.00 | 0.00 | 0.00 | 40 | 1026.7 |
| 20260905182107 | 26 | 187 | 4.8 | 16.1 | 0.00 | 0.00 | 0.00 | 41 | 1026.8 |
| 20260905181621 | 25 | 147 | 6.4 | 16.1 | 0.00 | 0.00 | 0.00 | 40 | 1026.9 |
| 20260905181114 | 25 | 56 | 1.6 | 8.0 | 0.00 | 0.00 | 0.00 | 40 | 1026.9 |
| 20260905180608 | 26 | 41 | 3.2 | 14.5 | 0.00 | 0.00 | 0.00 | 38 | 1027.0 |
| 20260905180143 | 26 | 126 | 4.8 | 14.5 | 0.00 | 0.00 | 0.00 | 40 | 1027.1 |
| 20260905175616 | 26 | 78 | 1.6 | 9.7 | 0.00 | 0.00 | 0.00 | 41 | 1027.2 |
| 20260905175114 | 26 | 166 | 4.8 | 9.7 | 0.00 | 0.00 | 0.00 | 40 | 1027.2 |
| 20260905174608 | 26 | 71 | 4.8 | 12.9 | 0.00 | 0.00 | 0.00 | 41 | 1027.1 |
| 20260905174122 | 25 | 117 | 3.2 | 9.7 | 0.00 | 0.00 | 0.00 | 42 | 1027.1 |
| 20260905173636 | 25 | 45 | 4.8 | 8.0 | 0.00 | 0.00 | 0.00 | 40 | 1027.2 |
| 20260905173108 | 25 | 147 | 1.6 | 6.4 | 0.00 | 0.00 | 0.00 | 40 | 1027.3 |
| 20260905172643 | 25 | 86 | 3.2 | 8.0 | 0.00 | 0.00 | 0.00 | 41 | 1027.4 |
| 20260905172116 | 25 | 146 | 3.2 | 12.9 | 0.00 | 0.00 | 0.00 | 42 | 1027.2 |
| 20260905171610 | 25 | 159 | 6.4 | 12.9 | 0.00 | 0.00 | 0.00 | 40 | 1027.2 |
| 20260905171104 | 25 | 143 | 4.8 | 12.9 | 0.00 | 0.00 | 0.00 | 41 | 1027.2 |
| 20260905170618 | 25 | 156 | 3.2 | 11.3 | 0.00 | 0.00 | 0.00 | 41 | 1027.4 |
| 20260905170132 | 25 | 130 | 3.2 | 11.3 | 0.00 | 0.00 | 0.00 | 42 | 1027.3 |
| 20260905165604 | 25 | 276 | 1.6 | 6.4 | 0.00 | 0.00 | 0.00 | 42 | 1027.4 |
| 20260905165115 | 24 | 217 | 0.0 | 6.4 | 0.00 | 0.00 | 0.00 | 41 | 1027.4 |
| 20260905164603 | 24 | 217 | 1.6 | 6.4 | 0.00 | 0.00 | 0.00 | 43 | 1027.4 |
| 20260905163630 | 23 | 130 | 3.2 | 6.4 | 0.00 | 0.00 | 0.00 | 44 | 1027.4 |
| 20260905163104 | 23 | 186 | 1.6 | 6.4 | 0.00 | 0.00 | 0.00 | 47 | 1027.4 |
| 20260905162635 | 23 | 300 | 0.0 | 4.8 | 0.00 | 0.00 | 0.00 | 47 | 1027.4 |
| 20260905162125 | 23 | 312 | 1.6 | 4.8 | 0.00 | 0.00 | 0.00 | 47 | 1027.4 |
| 20260905161619 | 23 | 228 | 1.6 | 4.8 | 0.00 | 0.00 | 0.00 | 44 | 1027.4 |
| 20260905161117 | 22 | 144 | 1.6 | 11.3 | 0.00 | 0.00 | 0.00 | 48 | 1027.4 |
| 20260905160609 | 22 | 140 | 6.4 | 11.3 | 0.00 | 0.00 | 0.00 | 49 | 1027.4 |
| 20260905155618 | 22 | 38 | 1.6 | 6.4 | 0.00 | 0.00 | 0.00 | 53 | 1027.4 |
| 20260905155112 | 22 | 155 | 3.2 | 6.4 | 0.00 | 0.00 | 0.00 | 55 | 1027.4 |
| 20260905154613 | 21 | 102 | 0.0 | 4.8 | 0.00 | 0.00 | 0.00 | 55 | 1027.4 |
| 20260905154128 | 21 | 102 | 1.6 | 6.4 | 0.00 | 0.00 | 0.00 | 56 | 1027.5 |
| 20260905153618 | 21 | 49 | 3.2 | 6.4 | 0.00 | 0.00 | 0.00 | 55 | 1027.5 |
| 20260905153112 | 22 | 146 | 0.0 | 0.0 | 0.00 | 0.00 | 0.00 | 58 | 1027.6 |
| 20260905152605 | 21 | 146 | 0.0 | 0.0 | 0.00 | 0.00 | 0.00 | 56 | 1027.5 |
| 20260905152119 | 21 | 146 | 0.0 | 0.0 | 0.00 | 0.00 | 0.00 | 58 | 1027.5 |
| 20260905151613 | 21 | 146 | 0.0 | 0.0 | 0.00 | 0.00 | 0.00 | 58 | 1027.5 |
| 20260905151118 | 21 | 146 | 0.0 | 0.0 | 0.00 | 0.00 | 0.00 | 59 | 1027.5 |
| 20260905150606 | 20 | 146 | 0.0 | 0.0 | 0.00 | 0.00 | 0.00 | 62 | 1027.4 |
| 20260905150119 | 20 | 146 | 0.0 | 0.0 | 0.00 | 0.00 | 0.00 | 64 | 1027.4 |
| 20260905145613 | 19 | 146 | 0.0 | 0.0 | 0.00 | 0.00 | 0.00 | 66 | 1027.4 |
| 20260905145106 | 18 | 146 | 0.0 | 0.0 | 0.00 | 0.00 | 0.00 | 67 | 1027.4 |
| 20260905144620 | 18 | 146 | 0.0 | 0.0 | 0.00 | 0.00 | 0.00 | 72 | 1027.4 |
| 20260905144113 | 17 | 146 | 0.0 | 0.0 | 0.00 | 0.00 | 0.00 | 77 | 1027.4 |
| 20260905143611 | 17 | 146 | 0.0 | 0.0 | 0.00 | 0.00 | 0.00 | 83 | 1027.4 |
| 20260905143104 | 16 | 146 | 0.0 | 0.0 | 0.00 | 0.00 | 0.00 | 85 | 1027.4 |
| 20260905142617 | 15 | 146 | 0.0 | 0.0 | 0.00 | 0.00 | 0.00 | 86 | 1027.4 |
| 20260905142111 | 14 | 34 | 0.0 | 0.0 | 0.00 | 0.00 | 0.00 | 90 | 1027.4 |
| 20260905141605 | 13 | 34 | 0.0 | 0.0 | 0.00 | 0.00 | 0.00 | 90 | 1027.3 |
| 20260905141118 | 13 | 34 | 0.0 | 0.0 | 0.00 | 0.00 | 0.00 | 90 | 1027.4 |
| 20260905140613 | 13 | 34 | 0.0 | 0.0 | 0.00 | 0.00 | 0.00 | 90 | 1027.3 |
| 20260905140119 | 13 | 34 | 0.0 | 0.0 | 0.00 | 0.00 | 0.00 | 90 | 1027.4 |
| 20260905135612 | 13 | 34 | 0.0 | 0.0 | 0.00 | 0.00 | 0.00 | 90 | 1027.3 |
| 20260905135106 | 12 | 34 | 0.0 | 0.0 | 0.00 | 0.00 | 0.00 | 90 | 1027.2 |
| 20260905134640 | 12 | 34 | 0.0 | 0.0 | 0.00 | 0.00 | 0.00 | 90 | 1027.2 |
| 20260905134113 | 12 | 34 | 0.0 | 0.0 | 0.00 | 0.00 | 0.00 | 90 | 1027.1 |
| 20260905133606 | 12 | 34 | 0.0 | 0.0 | 0.00 | 0.00 | 0.00 | 90 | 1027.0 |
| 20260905133141 | 12 | 34 | 0.0 | 0.0 | 0.00 | 0.03 | 0.00 | 90 | 1027.1 |
| 20260905132618 | 12 | 34 | 0.0 | 0.0 | 0.00 | 0.03 | 0.00 | 89 | 1027.0 |
| 20260905132112 | 12 | 34 | 0.0 | 0.0 | 0.00 | 0.03 | 0.00 | 89 | 1026.9 |
| 20260905131606 | 12 | 34 | 0.0 | 0.0 | 0.00 | 0.03 | 0.00 | 89 | 1026.7 |
| 20260905131141 | 12 | 34 | 0.0 | 0.0 | 0.00 | 0.03 | 0.00 | 89 | 1026.7 |
| 20260905130615 | 12 | 34 | 0.0 | 0.0 | 0.00 | 0.03 | 0.00 | 89 | 1026.6 |
| 20260905130128 | 12 | 34 | 0.0 | 0.0 | 0.00 | 0.03 | 0.00 | 88 | 1026.6 |
| 20260905125622 | 12 | 34 | 0.0 | 0.0 | 0.00 | 0.03 | 0.00 | 88 | 1026.6 |
| 20260905125116 | 12 | 34 | 0.0 | 0.0 | 0.00 | 0.03 | 0.00 | 89 | 1026.5 |
| 20260905124609 | 12 | 34 | 0.0 | 0.0 | 0.00 | 0.03 | 0.00 | 89 | 1026.5 |
| 20260905124107 | 12 | 34 | 0.0 | 0.0 | 0.00 | 0.03 | 0.00 | 89 | 1026.4 |
| 20260905123621 | 12 | 34 | 0.0 | 0.0 | 0.00 | 0.03 | 0.00 | 88 | 1026.4 |
| 20260905123115 | 12 | 34 | 0.0 | 0.0 | 0.00 | 0.03 | 0.00 | 87 | 1026.4 |
| 20260905122609 | 12 | 34 | 0.0 | 0.0 | 0.00 | 0.03 | 0.00 | 88 | 1026.4 |
| 20260905122103 | 12 | 34 | 0.0 | 0.0 | 0.00 | 0.03 | 0.00 | 88 | 1026.4 |
| 20260905121618 | 12 | 34 | 0.0 | 0.0 | 0.00 | 0.03 | 0.00 | 87 | 1026.4 |
| 20260905121111 | 12 | 34 | 0.0 | 0.0 | 0.00 | 0.03 | 0.00 | 88 | 1026.4 |
| 20260905120609 | 12 | 34 | 0.0 | 0.0 | 0.00 | 0.03 | 0.00 | 87 | 1026.4 |
| 20260905120103 | 12 | 34 | 0.0 | 0.0 | 0.00 | 0.03 | 0.00 | 87 | 1026.3 |
| 20260905115638 | 12 | 34 | 0.0 | 0.0 | 0.00 | 0.03 | 0.00 | 87 | 1026.3 |
| 20260905115110 | 12 | 34 | 0.0 | 0.0 | 0.00 | 0.03 | 0.00 | 87 | 1026.4 |
| 20260905114644 | 12 | 34 | 0.0 | 0.0 | 0.00 | 0.03 | 0.00 | 87 | 1026.2 |
| 20260905114117 | 12 | 34 | 0.0 | 0.0 | 0.00 | 0.03 | 0.00 | 87 | 1026.2 |
| 20260905113611 | 12 | 34 | 0.0 | 0.0 | 0.00 | 0.03 | 0.00 | 87 | 1026.2 |
| 20260905113105 | 12 | 34 | 0.0 | 0.0 | 0.00 | 0.03 | 0.00 | 87 | 1026.2 |
| 20260905112619 | 12 | 34 | 0.0 | 0.0 | 0.00 | 0.03 | 0.00 | 87 | 1026.2 |
| 20260905112112 | 12 | 34 | 0.0 | 0.0 | 0.00 | 0.03 | 0.00 | 87 | 1026.2 |
| 20260905111610 | 12 | 34 | 0.0 | 0.0 | 0.00 | 0.03 | 0.00 | 87 | 1026.2 |
| 20260905111105 | 13 | 34 | 0.0 | 0.0 | 0.00 | 0.03 | 0.00 | 87 | 1026.2 |
| 20260905110619 | 13 | 34 | 0.0 | 0.0 | 0.00 | 0.03 | 0.00 | 86 | 1026.2 |
| 20260905110112 | 13 | 34 | 0.0 | 0.0 | 0.00 | 0.03 | 0.00 | 86 | 1026.2 |
| 20260905105606 | 13 | 34 | 0.0 | 0.0 | 0.00 | 0.03 | 0.00 | 87 | 1026.2 |
| 20260905105120 | 13 | 34 | 0.0 | 0.0 | 0.00 | 0.03 | 0.00 | 86 | 1026.1 |
| 20260905104614 | 13 | 34 | 0.0 | 0.0 | 0.00 | 0.03 | 0.00 | 86 | 1026.1 |
| 20260905104112 | 13 | 34 | 0.0 | 0.0 | 0.00 | 0.03 | 0.00 | 86 | 1026.1 |
| 20260905103605 | 13 | 34 | 0.0 | 0.0 | 0.00 | 0.03 | 0.00 | 86 | 1026.1 |
| 20260905103119 | 13 | 34 | 0.0 | 0.0 | 0.00 | 0.03 | 0.00 | 86 | 1026.0 |
| 20260905102612 | 13 | 34 | 0.0 | 0.0 | 0.00 | 0.03 | 0.00 | 86 | 1026.1 |
| 20260905102107 | 13 | 34 | 0.0 | 0.0 | 0.00 | 0.03 | 0.00 | 86 | 1026.0 |
| 20260905101620 | 13 | 34 | 0.0 | 0.0 | 0.00 | 0.03 | 0.00 | 86 | 1026.0 |
| 20260905101113 | 13 | 34 | 0.0 | 0.0 | 0.00 | 0.03 | 0.00 | 86 | 1026.0 |
| 20260905100606 | 13 | 34 | 0.0 | 0.0 | 0.00 | 0.03 | 0.00 | 86 | 1026.0 |
| 20260905100121 | 13 | 34 | 0.0 | 0.0 | 0.00 | 0.03 | 0.00 | 85 | 1026.0 |
| 20260905095619 | 13 | 34 | 0.0 | 0.0 | 0.00 | 0.03 | 0.00 | 86 | 1026.0 |
| 20260905095112 | 13 | 34 | 0.0 | 0.0 | 0.00 | 0.03 | 0.00 | 86 | 1026.0 |
| 20260905094626 | 13 | 34 | 0.0 | 0.0 | 0.00 | 0.03 | 0.00 | 86 | 1025.9 |
| 20260905094120 | 13 | 34 | 0.0 | 0.0 | 0.00 | 0.03 | 0.00 | 86 | 1025.9 |
| 20260905093613 | 13 | 34 | 0.0 | 0.0 | 0.00 | 0.03 | 0.00 | 85 | 1026.0 |
| 20260905093128 | 13 | 34 | 0.0 | 0.0 | 0.00 | 0.03 | 0.00 | 85 | 1026.0 |
| 20260905092619 | 13 | 34 | 0.0 | 0.0 | 0.00 | 0.03 | 0.00 | 85 | 1026.0 |
| 20260905092113 | 13 | 34 | 0.0 | 0.0 | 0.00 | 0.03 | 0.00 | 85 | 1026.0 |
| 20260905091608 | 13 | 34 | 0.0 | 0.0 | 0.00 | 0.03 | 0.00 | 85 | 1026.0 |
| 20260905091105 | 13 | 34 | 0.0 | 0.0 | 0.00 | 0.03 | 0.00 | 85 | 1026.0 |
| 20260905090619 | 13 | 34 | 0.0 | 0.0 | 0.00 | 0.03 | 0.00 | 85 | 1026.0 |
| 20260905090112 | 13 | 34 | 0.0 | 0.0 | 0.00 | 0.03 | 0.00 | 84 | 1026.0 |
| 20260905085626 | 13 | 34 | 0.0 | 0.0 | 0.00 | 0.03 | 0.00 | 84 | 1026.0 |
| 20260905085119 | 13 | 34 | 0.0 | 0.0 | 0.00 | 0.03 | 0.00 | 84 | 1025.9 |
| 20260905084633 | 13 | 34 | 0.0 | 0.0 | 0.00 | 0.03 | 0.00 | 84 | 1025.9 |
| 20260905084104 | 13 | 34 | 0.0 | 0.0 | 0.00 | 0.03 | 0.00 | 84 | 1025.8 |
| 20260905083618 | 13 | 34 | 0.0 | 0.0 | 0.00 | 0.03 | 0.00 | 84 | 1025.9 |
| 20260905083111 | 13 | 34 | 0.0 | 0.0 | 0.00 | 0.03 | 0.00 | 84 | 1025.9 |
| 20260905082605 | 13 | 34 | 0.0 | 0.0 | 0.00 | 0.03 | 0.00 | 84 | 1026.0 |
| 20260905082103 | 14 | 34 | 0.0 | 0.0 | 0.00 | 0.03 | 0.00 | 83 | 1026.0 |
| 20260905081617 | 14 | 34 | 0.0 | 0.0 | 0.00 | 0.03 | 0.00 | 84 | 1026.1 |
| 20260905081110 | 13 | 34 | 0.0 | 0.0 | 0.00 | 0.03 | 0.00 | 84 | 1026.1 |
| 20260905080603 | 14 | 34 | 0.0 | 0.0 | 0.00 | 0.03 | 0.00 | 84 | 1026.0 |
| 20260905080117 | 14 | 34 | 0.0 | 0.0 | 0.00 | 0.03 | 0.00 | 84 | 1026.0 |
| 20260905075610 | 14 | 34 | 0.0 | 0.0 | 0.00 | 0.03 | 0.00 | 84 | 1025.9 |
| 20260905075124 | 14 | 34 | 0.0 | 0.0 | 0.00 | 0.03 | 0.00 | 84 | 1026.0 |
| 20260905074637 | 14 | 34 | 0.0 | 0.0 | 0.00 | 0.03 | 0.00 | 84 | 1026.0 |
| 20260905074107 | 13 | 34 | 0.0 | 0.0 | 0.00 | 0.03 | 0.00 | 84 | 1026.0 |
| 20260905073621 | 13 | 34 | 0.0 | 0.0 | 0.00 | 0.03 | 0.00 | 84 | 1026.1 |
| 20260905073119 | 13 | 34 | 0.0 | 0.0 | 0.00 | 0.03 | 0.00 | 84 | 1026.0 |
| 20260905072612 | 13 | 34 | 0.0 | 0.0 | 0.00 | 0.03 | 0.00 | 84 | 1026.0 |
| 20260905072106 | 14 | 34 | 0.0 | 0.0 | 0.00 | 0.03 | 0.00 | 84 | 1026.0 |
| 20260905071619 | 14 | 34 | 0.0 | 0.0 | 0.00 | 0.03 | 0.00 | 84 | 1026.0 |
| 20260905071113 | 14 | 34 | 0.0 | 0.0 | 0.00 | 0.03 | 0.00 | 83 | 1026.0 |
| 20260905070607 | 14 | 34 | 0.0 | 0.0 | 0.00 | 0.03 | 0.00 | 84 | 1026.0 |
| 20260905070140 | 14 | 34 | 0.0 | 0.0 | 0.00 | 0.03 | 0.00 | 84 | 1026.0 |
| 20260905065612 | 14 | 34 | 0.0 | 0.0 | 0.00 | 0.03 | 0.00 | 84 | 1026.0 |
| 20260905065110 | 14 | 34 | 0.0 | 0.0 | 0.00 | 0.03 | 0.00 | 83 | 1026.0 |
| 20260905064624 | 14 | 34 | 0.0 | 0.0 | 0.00 | 0.03 | 0.00 | 83 | 1026.0 |
| 20260905064116 | 14 | 34 | 0.0 | 0.0 | 0.00 | 0.03 | 0.00 | 83 | 1026.0 |
| 20260905063610 | 14 | 34 | 0.0 | 0.0 | 0.00 | 0.03 | 0.00 | 83 | 1026.0 |
| 20260905063104 | 14 | 34 | 0.0 | 0.0 | 0.00 | 0.03 | 0.03 | 84 | 1026.1 |
| 20260905062618 | 14 | 34 | 0.0 | 0.0 | 0.00 | 0.03 | 0.03 | 83 | 1026.0 |
| 20260905062132 | 14 | 34 | 0.0 | 0.0 | 0.00 | 0.03 | 0.03 | 83 | 1026.0 |
| 20260905061604 | 14 | 34 | 0.0 | 0.0 | 0.00 | 0.03 | 0.03 | 83 | 1026.0 |
| 20260905061118 | 15 | 34 | 0.0 | 0.0 | 0.00 | 0.03 | 0.03 | 83 | 1025.9 |
| 20260905060632 | 15 | 34 | 0.0 | 0.0 | 0.00 | 0.03 | 0.03 | 83 | 1026.0 |
| 20260905060109 | 15 | 34 | 0.0 | 0.0 | 0.00 | 0.03 | 0.03 | 82 | 1026.0 |
| 20260905055603 | 15 | 34 | 0.0 | 0.0 | 0.00 | 0.03 | 0.03 | 82 | 1025.9 |
| 20260905055116 | 15 | 34 | 0.0 | 0.0 | 0.00 | 0.03 | 0.03 | 82 | 1026.0 |
| 20260905054609 | 15 | 34 | 0.0 | 0.0 | 0.00 | 0.03 | 0.03 | 81 | 1025.9 |
| 20260905054123 | 15 | 34 | 0.0 | 0.0 | 0.00 | 0.03 | 0.03 | 82 | 1025.9 |
| 20260905053616 | 15 | 34 | 0.0 | 0.0 | 0.00 | 0.03 | 0.03 | 81 | 1025.9 |
| 20260905053108 | 15 | 34 | 0.0 | 0.0 | 0.00 | 0.03 | 0.03 | 81 | 1026.0 |
| 20260905052621 | 15 | 34 | 0.0 | 0.0 | 0.00 | 0.03 | 0.03 | 81 | 1026.0 |
| 20260905052114 | 16 | 34 | 0.0 | 0.0 | 0.00 | 0.03 | 0.03 | 81 | 1026.1 |
| 20260905051144 | 16 | 34 | 0.0 | 0.0 | 0.00 | 0.03 | 0.03 | 80 | 1026.2 |
| 20260905050121 | 16 | 34 | 0.0 | 0.0 | 0.00 | 0.03 | 0.03 | 79 | 1026.2 |
| 20260905045615 | 16 | 34 | 0.0 | 0.0 | 0.00 | 0.03 | 0.03 | 78 | 1026.2 |
| 20260905045107 | 16 | 34 | 0.0 | 0.0 | 0.00 | 0.03 | 0.03 | 79 | 1026.2 |
| 20260905044623 | 16 | 34 | 0.0 | 0.0 | 0.00 | 0.03 | 0.03 | 79 | 1026.2 |
| 20260905044114 | 16 | 34 | 0.0 | 0.0 | 0.00 | 0.03 | 0.03 | 78 | 1026.4 |
| 20260905043607 | 17 | 34 | 0.0 | 0.0 | 0.00 | 0.03 | 0.03 | 77 | 1026.6 |
| 20260905043104 | 17 | 34 | 0.0 | 0.0 | 0.00 | 0.03 | 0.03 | 77 | 1026.5 |
| 20260905042618 | 17 | 34 | 0.0 | 0.0 | 0.00 | 0.03 | 0.03 | 76 | 1026.7 |
| 20260905042112 | 17 | 34 | 0.0 | 0.0 | 0.00 | 0.03 | 0.03 | 76 | 1026.7 |
| 20260905041627 | 17 | 34 | 0.0 | 0.0 | 0.00 | 0.03 | 0.03 | 75 | 1026.7 |
| 20260905041120 | 17 | 34 | 0.0 | 0.0 | 0.00 | 0.03 | 0.03 | 73 | 1026.7 |
| 20260905040614 | 17 | 34 | 0.0 | 0.0 | 0.00 | 0.03 | 0.03 | 74 | 1026.7 |
| 20260905040107 | 18 | 34 | 0.0 | 0.0 | 0.00 | 0.03 | 0.03 | 73 | 1026.7 |
| 20260905035622 | 18 | 34 | 0.0 | 0.0 | 0.00 | 0.03 | 0.03 | 72 | 1026.8 |
| 20260905035135 | 18 | 34 | 0.0 | 0.0 | 0.00 | 0.03 | 0.03 | 71 | 1026.8 |
| 20260905034630 | 18 | 34 | 0.0 | 0.0 | 0.00 | 0.03 | 0.03 | 71 | 1026.7 |
| 20260905034106 | 18 | 34 | 0.0 | 0.0 | 0.00 | 0.03 | 0.03 | 68 | 1026.7 |
| 20260905033620 | 19 | 34 | 0.0 | 0.0 | 0.00 | 0.03 | 0.03 | 68 | 1026.8 |
| 20260905033114 | 19 | 34 | 0.0 | 0.0 | 0.00 | 0.03 | 0.03 | 69 | 1026.8 |
| 20260905032608 | 20 | 34 | 0.0 | 0.0 | 0.00 | 0.03 | 0.03 | 68 | 1026.7 |
| 20260905032142 | 20 | 34 | 0.0 | 0.0 | 0.00 | 0.03 | 0.03 | 65 | 1026.7 |
| 20260905031615 | 20 | 34 | 0.0 | 0.0 | 0.00 | 0.03 | 0.03 | 66 | 1026.7 |
| 20260905031109 | 20 | 34 | 0.0 | 0.0 | 0.00 | 0.03 | 0.03 | 64 | 1026.7 |
| 20260905030643 | 20 | 34 | 0.0 | 1.6 | 0.00 | 0.03 | 0.03 | 63 | 1026.7 |
| 20260905030116 | 20 | 34 | 0.0 | 1.6 | 0.00 | 0.03 | 0.03 | 63 | 1026.6 |
| 20260905025614 | 20 | 34 | 0.0 | 0.0 | 0.00 | 0.03 | 0.03 | 64 | 1026.4 |
| 20260905025108 | 20 | 34 | 0.0 | 0.0 | 0.00 | 0.03 | 0.03 | 63 | 1026.5 |
| 20260905024622 | 20 | 34 | 0.0 | 0.0 | 0.00 | 0.03 | 0.03 | 62 | 1026.4 |
| 20260905024116 | 20 | 34 | 0.0 | 0.0 | 0.00 | 0.03 | 0.03 | 62 | 1026.4 |
| 20260905023610 | 20 | 34 | 0.0 | 3.2 | 0.00 | 0.03 | 0.03 | 62 | 1026.3 |
| 20260905023103 | 20 | 34 | 0.0 | 3.2 | 0.00 | 0.03 | 0.03 | 61 | 1026.1 |
| 20260905022618 | 20 | 34 | 1.6 | 3.2 | 0.00 | 0.03 | 0.03 | 61 | 1026.1 |
| 20260905022110 | 20 | 34 | 0.0 | 8.0 | 0.00 | 0.03 | 0.03 | 60 | 1025.9 |
| 20260905021609 | 20 | 34 | 4.8 | 8.0 | 0.00 | 0.03 | 0.03 | 60 | 1025.7 |
| 20260905021104 | 20 | 40 | 1.6 | 4.8 | 0.00 | 0.03 | 0.03 | 60 | 1025.5 |
| 20260905020637 | 20 | 131 | 0.0 | 8.0 | 0.00 | 0.03 | 0.03 | 60 | 1025.4 |
| 20260905020110 | 20 | 101 | 0.0 | 11.3 | 0.00 | 0.03 | 0.03 | 61 | 1025.4 |
| 20260905015624 | 20 | 126 | 3.2 | 6.4 | 0.00 | 0.03 | 0.03 | 63 | 1025.3 |
| 20260905015118 | 20 | 90 | 1.6 | 8.0 | 0.00 | 0.03 | 0.03 | 66 | 1025.3 |